Weather History for KBEH - February, 2013

Change the Weather History Date:

Thursday, February 14, 2013

  Actual Average (KSBN) Record (KSBN)
Temperature  
Mean Temperature 36 °F 27 °F  
Max Temperature 41 °F 35 °F 59 °F (1954)
Min Temperature 30 °F 20 °F -18 °F (1905)
Degree Days  
Heating Degree Days 30 38  
Month to date heating degree days 547  
Since 1 July heating degree days 4195  
Cooling Degree Days 0 0  
Month to date cooling degree days 0  
Year to date cooling degree days 0  
Moisture  
Dew Point 29 °F    
Average Humidity 76    
Maximum Humidity 92    
Minimum Humidity 67    
Precipitation  
Precipitation 0.00 in 0.07 in 0.93 in (1949)
Month to date precipitation 0.91  
Year to date precipitation 3.20  
Snow  
Snow 0.00 in 0.50 in 7.30 in (1991)
Month to date snowfall 8.3  
Since 1 July snowfall 51.4  
Snow Depth -    
Sea Level Pressure  
Sea Level Pressure 29.78 in    
Wind  
Wind Speed 10 mph (WSW)    
Max Wind Speed 23 mph    
Max Gust Speed 33 mph    
Visibility 9 miles    
Events Snow    
T = Trace of Precipitation, MM = Missing Value Source: NWS Daily Summary

Daily Weather History Graph

Daily Weather History Graph

Search for Another Location

Airport or City:

Trip Planner

Search our weather history database for the weather conditions in past years. The results will help you decide how hot, cold, wet, or windy it might be!

Date:

Astronomy

Feb. 14, 2013 Rise Set
Actual Time 7:42 AM EST 6:17 PM EST
Civil Twilight 7:14 AM EST 6:46 PM EST
Nautical Twilight 6:41 AM EST 7:19 PM EST
Astronomical Twilight 6:08 AM EST 7:51 PM EST
Moon 9:38 AM EST (2/14) 11:26 PM EST (2/14)
Length of Visible Light 11h 32m
Length of Day
10h 34m
Waxing Crescent, 21% of the Moon is Illuminated
Feb 14
Waxing Crescent
Feb 17
First Quarter
Feb 25
Full
Mar 4
Last Quarter
Mar 11
New

Hourly Weather History & Observations

Time (EST) Temp. Windchill Dew Point Humidity Pressure Visibility Wind Dir Wind Speed Gust Speed Precip Events Conditions
12:53 AM 30.9 °F - 28.9 °F 92% 29.76 in 5.0 mi Calm Calm - N/A   Overcast
1:53 AM 33.1 °F 30.0 °F 30.0 °F 89% 29.77 in 5.0 mi SSW 3.5 mph - N/A   Overcast
2:53 AM 33.1 °F 28.7 °F 28.9 °F 85% 29.75 in 6.0 mi South 4.6 mph - N/A   Overcast
3:53 AM 33.1 °F 27.7 °F 28.9 °F 85% 29.75 in 6.0 mi South 5.8 mph - N/A   Overcast
4:53 AM 34.0 °F 28.8 °F 30.0 °F 85% 29.73 in 6.0 mi South 5.8 mph - N/A   Overcast
5:53 AM 35.1 °F 29.3 °F 30.0 °F 82% 29.71 in 8.0 mi SSE 6.9 mph - N/A   Overcast
6:53 AM 36.0 °F 30.3 °F 30.9 °F 82% 29.70 in 9.0 mi South 6.9 mph - 0.00 in   Overcast
7:53 AM 36.0 °F 30.3 °F 30.0 °F 79% 29.68 in 9.0 mi SSE 6.9 mph - N/A   Overcast
8:53 AM 37.0 °F 29.3 °F 30.0 °F 76% 29.69 in 8.0 mi South 11.5 mph 18.4 mph N/A   Overcast
9:53 AM 37.9 °F 30.0 °F 30.9 °F 76% 29.69 in 9.0 mi SSW 12.7 mph 18.4 mph N/A   Scattered Clouds
10:25 AM 39.2 °F 30.2 °F 30.2 °F 70% 29.67 in 10.0 mi SSW 17.3 mph 24.2 mph N/A   Mostly Cloudy
10:53 AM 39.9 °F 30.5 °F 30.9 °F 70% 29.69 in 10.0 mi SW 19.6 mph 28.8 mph N/A   Overcast
11:15 AM 39.2 °F 29.0 °F 32.0 °F 75% 29.67 in 10.0 mi SW 21.9 mph 32.2 mph N/A   Overcast
11:53 AM 41.0 °F 31.6 °F 32.0 °F 70% 29.69 in 10.0 mi SW 20.7 mph 28.8 mph N/A   Overcast
12:53 PM 39.0 °F 29.9 °F 32.0 °F 76% 29.70 in 10.0 mi SW 17.3 mph - N/A   Overcast
1:10 PM 39.2 °F 30.2 °F 32.0 °F 75% 29.68 in 10.0 mi WSW 17.3 mph 25.3 mph N/A   Overcast
1:53 PM 37.0 °F 27.4 °F 33.1 °F 86% 29.71 in 4.0 mi WSW 17.3 mph 27.6 mph N/A   Overcast
2:53 PM 37.9 °F 27.9 °F 30.9 °F 76% 29.72 in 10.0 mi WSW 19.6 mph 26.5 mph N/A   Overcast
3:15 PM 37.4 °F 27.5 °F 30.2 °F 75% 29.71 in 10.0 mi WSW 18.4 mph 25.3 mph N/A   Overcast
3:53 PM 37.9 °F 28.2 °F 30.9 °F 76% 29.75 in 10.0 mi West 18.4 mph 27.6 mph N/A   Overcast
4:02 PM 37.4 °F 27.2 °F 30.2 °F 75% 29.73 in 10.0 mi WSW 19.6 mph 26.5 mph N/A   Overcast
4:53 PM 36.0 °F 24.4 °F 28.9 °F 76% 29.81 in 10.0 mi West 23.0 mph 33.4 mph N/A   Overcast
5:53 PM 36.0 °F 25.6 °F 28.0 °F 73% 29.85 in 10.0 mi West 18.4 mph 28.8 mph N/A   Overcast
6:12 PM 35.6 °F 25.5 °F 28.4 °F 75% 29.84 in 10.0 mi WNW 17.3 mph 26.5 mph N/A   Overcast
6:53 PM 35.1 °F 25.2 °F 27.0 °F 72% 29.88 in 10.0 mi WNW 16.1 mph 24.2 mph N/A   Overcast
7:53 PM 35.1 °F 25.5 °F 25.0 °F 67% 29.92 in 10.0 mi WNW 15.0 mph 25.3 mph N/A   Overcast
8:53 PM 34.0 °F 25.0 °F 24.1 °F 67% 29.93 in 10.0 mi WNW 12.7 mph 28.8 mph N/A   Overcast
9:38 PM 33.8 °F 23.9 °F 24.8 °F 70% 29.92 in 10.0 mi WNW 15.0 mph 21.9 mph N/A   Overcast
9:53 PM 34.0 °F 25.5 °F 25.0 °F 70% 29.94 in 10.0 mi WNW 11.5 mph - N/A   Overcast
10:13 PM 33.8 °F 23.9 °F 24.8 °F 70% 29.93 in 9.0 mi WNW 15.0 mph 23.0 mph 0.00 in Snow Light Snow
10:53 PM 34.0 °F 25.5 °F 26.1 °F 73% 29.95 in 10.0 mi WNW 11.5 mph 18.4 mph 0.00 in   Overcast
11:53 PM 34.0 °F 27.2 °F 24.1 °F 67% 29.94 in 10.0 mi WNW 8.1 mph - N/A   Overcast